TimeWGT,TemperatureF,Dew PointF,Humidity,Sea Level PressureIn,VisibilityMPH,Wind Direction,Wind SpeedMPH,Gust SpeedMPH,PrecipitationIn,Events,Conditions,WindDirDegrees,DateUTC
12:00 AM,7,-1,58,29.63,31,NE,6.9,,,,Overcast,50,2013-11-07 03:00:00
12:20 AM,6.8,-0.4,72,29.59,6.2,ENE,8.1,-,N/A,,Mostly Cloudy,60,2013-11-07 03:20:00
12:50 AM,8.6,1.4,73,29.59,6.2,ENE,9.2,-,N/A,,Scattered Clouds,60,2013-11-07 03:50:00
1:20 AM,6.8,1.4,79,29.59,6.2,NE,9.2,-,N/A,,Unknown,50,2013-11-07 04:20:00
1:50 AM,5.0,-0.4,78,29.59,6.2,ENE,10.4,-,N/A,,Partly Cloudy,60,2013-11-07 04:50:00
2:20 AM,5.0,-2.2,72,29.59,6.2,ENE,11.5,-,N/A,,Partly Cloudy,70,2013-11-07 05:20:00
2:50 AM,5.0,-2.2,72,29.59,6.2,ENE,11.5,-,N/A,,Unknown,70,2013-11-07 05:50:00
3:00 AM,6,-3,52,29.62,47,ENE,10.4,,,,Scattered Clouds,60,2013-11-07 06:00:00
3:20 AM,5.0,-2.2,72,29.59,6.2,ENE,11.5,-,N/A,,Unknown,70,2013-11-07 06:20:00
3:50 AM,3.2,-4.0,72,29.59,6.2,ENE,11.5,-,N/A,,Partly Cloudy,60,2013-11-07 06:50:00
4:20 AM,6.8,-4.0,61,29.59,6.2,ENE,12.7,-,N/A,,Mostly Cloudy,60,2013-11-07 07:20:00
4:50 AM,6.8,-4.0,61,29.59,6.2,ENE,13.8,-,N/A,,Mostly Cloudy,70,2013-11-07 07:50:00
5:20 AM,6.8,-5.8,56,29.59,6.2,ENE,13.8,-,N/A,,Mostly Cloudy,60,2013-11-07 08:20:00
5:50 AM,5.0,-5.8,61,29.59,6.2,ENE,13.8,-,N/A,,Unknown,60,2013-11-07 08:50:00
6:00 AM,6,-7,38,29.64,31,ENE,11.5,,,,Partly Cloudy,60,2013-11-07 09:00:00
6:20 AM,5.0,-5.8,61,29.59,6.2,ENE,12.7,-,N/A,,Mostly Cloudy,60,2013-11-07 09:20:00
6:50 AM,5.0,-5.8,61,29.62,6.2,ENE,11.5,-,N/A,,Partly Cloudy,60,2013-11-07 09:50:00
7:20 AM,3.2,-7.6,61,29.62,6.2,ENE,12.7,-,N/A,,Unknown,60,2013-11-07 10:20:00
7:50 AM,3.2,-7.6,61,29.62,6.2,ENE,11.5,-,N/A,,Unknown,60,2013-11-07 10:50:00
8:20 AM,3.2,-7.6,61,29.62,6.2,ENE,13.8,-,N/A,,Unknown,60,2013-11-07 11:20:00
8:50 AM,1.4,-7.6,66,29.62,6.2,ENE,11.5,-,N/A,,Unknown,70,2013-11-07 11:50:00
9:00 AM,2,-10,40,29.65,47,ENE,11.5,,,,,70,2013-11-07 12:00:00
9:20 AM,3.2,-9.4,56,29.62,6.2,ENE,12.7,-,N/A,,Unknown,70,2013-11-07 12:20:00
9:50 AM,3.2,-7.6,61,29.62,6.2,ENE,10.4,-,N/A,,Unknown,60,2013-11-07 12:50:00
10:20 AM,3.2,-9.4,56,29.62,6.2,East,10.4,-,N/A,,Unknown,80,2013-11-07 13:20:00
10:50 AM,5.0,-9.4,52,29.62,6.2,East,9.2,-,N/A,,Unknown,80,2013-11-07 13:50:00
11:20 AM,3.2,-9.4,56,29.62,6.2,East,9.2,-,N/A,,Unknown,80,2013-11-07 14:20:00
11:50 AM,3.2,-9.4,56,29.65,6.2,East,10.4,-,N/A,,Unknown,90,2013-11-07 14:50:00
12:00 PM,4,-12,30,29.67,28,East,9.2,,,,,80,2013-11-07 15:00:00
12:20 PM,5.0,-9.4,52,29.65,6.2,East,6.9,-,N/A,,Unknown,80,2013-11-07 15:20:00
12:50 PM,5.0,-9.4,52,29.65,6.2,ENE,6.9,-,N/A,,Unknown,60,2013-11-07 15:50:00
1:20 PM,3.2,-11.2,51,29.65,6.2,NE,6.9,-,N/A,,Unknown,40,2013-11-07 16:20:00
1:50 PM,3.2,-9.4,56,29.65,6.2,ENE,6.9,-,N/A,,Unknown,60,2013-11-07 16:50:00
2:20 PM,1.4,-11.2,56,29.65,6.2,NE,5.8,-,N/A,,Unknown,40,2013-11-07 17:20:00
2:50 PM,1.4,-9.4,61,29.65,6.2,NE,5.8,-,N/A,,Unknown,50,2013-11-07 17:50:00
3:00 PM,-0,-14,34,29.69,47,NE,5.8,,,,,50,2013-11-07 18:00:00
3:20 PM,-0.4,-11.2,60,29.65,6.2,NE,6.9,-,N/A,,Unknown,40,2013-11-07 18:20:00
3:50 PM,-2.2,-11.2,66,29.68,6.2,ENE,9.2,-,N/A,,Unknown,60,2013-11-07 18:50:00
4:20 PM,-2.2,-13.0,60,29.68,6.2,ENE,6.9,-,N/A,,Unknown,60,2013-11-07 19:20:00
4:50 PM,-5.8,-13.0,71,29.68,6.2,NE,8.1,-,N/A,,Unknown,50,2013-11-07 19:50:00
5:20 PM,-4.0,-13.0,65,29.68,6.2,NE,6.9,-,N/A,,Unknown,50,2013-11-07 20:20:00
5:50 PM,-4.0,-13.0,65,29.68,6.2,NE,8.1,-,N/A,,Unknown,40,2013-11-07 20:50:00
6:00 PM,-6,-16,45,29.72,31,NE,8.1,,,,,50,2013-11-07 21:00:00
6:20 PM,-5.8,-13.0,71,29.68,6.2,NE,9.2,-,N/A,,Unknown,50,2013-11-07 21:20:00
6:50 PM,-5.8,-14.8,65,29.68,6.2,ENE,8.1,-,N/A,,Unknown,60,2013-11-07 21:50:00
7:20 PM,-5.8,-14.8,65,29.68,6.2,NE,9.2,-,N/A,,Unknown,50,2013-11-07 22:20:00
7:50 PM,-7.6,-14.8,71,29.71,6.2,NE,8.1,-,N/A,,Unknown,50,2013-11-07 22:50:00
8:20 PM,-7.6,-14.8,71,29.68,6.2,NE,8.1,-,N/A,,Unknown,50,2013-11-07 23:20:00
8:50 PM,-7.6,-14.8,71,29.71,6.2,NE,8.1,-,N/A,,Unknown,50,2013-11-07 23:50:00
9:00 PM,-8,-17,49,29.75,47,NE,9.2,,,,,50,2013-11-08 00:00:00
9:20 PM,-9.4,-16.6,71,29.71,6.2,NE,8.1,-,N/A,,Unknown,50,2013-11-08 00:20:00
9:50 PM,-7.6,-14.8,71,29.71,6.2,ENE,8.1,-,N/A,,Unknown,60,2013-11-08 00:50:00
10:20 PM,-9.4,-16.6,71,29.71,6.2,NE,8.1,-,N/A,,Unknown,50,2013-11-08 01:20:00
10:50 PM,-9.4,-16.6,71,29.71,6.2,ENE,9.2,-,N/A,,Unknown,60,2013-11-08 01:50:00
11:20 PM,-9.4,-18.4,65,29.71,6.2,NE,8.1,-,N/A,,Unknown,50,2013-11-08 02:20:00
11:50 PM,-9.4,-16.6,71,29.71,6.2,NE,10.4,-,N/A,,Unknown,50,2013-11-08 02:50:00